Kyokuho Maru No.15 — JI3715 — position and weather

sailwx.info

Track history (hours):
 
Tides and Currents Weather Stations Pressure Air Temp Water Temp Dewpoint Dewpoint Depression Visibility Wind Speed Wind Dir Waves Ship Positions

Kyokuho Maru No.15

Last reported at 2016-Jul-30 04:33 UTC. Time now 2016-Aug-27 02:58 UTC.
Position N 35°15' E 139°46'.
Warning: this ship's position is 27 days out of date.

Length 63 m; draft 3.2 m.

Type: Tanker. MMSI: 431301714.

Date/timePositionNaut miles runAvg speedWind from/ knotsBaromVisibWave heightAir tempDewpointWater temp
2016-Jul-30 04:33N 35°15' E 139°46'1110.5
2016-Jul-30 03:33N 35°25' E 139°44'9 8.6
2016-Jul-30 02:28N 35°28' E 139°55'0 0.0
2016-Jul-30 01:28N 35°28' E 139°55'0 0.0
2016-Jul-30 00:31N 35°28' E 139°55'0 0.0
2016-Jul-29 23:31N 35°28' E 139°55'0 0.0
2016-Jul-29 22:28N 35°28' E 139°55'0 0.0
2016-Jul-29 21:31N 35°28' E 139°55'0 0.0
2016-Jul-29 20:31N 35°28' E 139°55'0 0.0
2016-Jul-29 19:28N 35°28' E 139°55'0 0.0
2016-Jul-29 18:31N 35°28' E 139°55'7 7.4
2016-Jul-29 17:33N 35°32' E 140°03'1 0.7
2016-Jul-29 16:33N 35°32' E 140°03'0 0.0
2016-Jul-29 15:30N 35°32' E 140°03'0 0.0
2016-Jul-29 14:33N 35°32' E 140°03'0 0.0
2016-Jul-29 13:33N 35°32' E 140°03'0 0.0
2016-Jul-29 12:33N 35°32' E 140°03'0 0.0
2016-Jul-29 11:33N 35°32' E 140°03'0 0.0
2016-Jul-29 10:33N 35°32' E 140°03'0 0.0
2016-Jul-29 09:33N 35°32' E 140°03'0 0.0
2016-Jul-29 08:33N 35°32' E 140°03'0 0.0
2016-Jul-29 07:33N 35°32' E 140°03'0 0.0
2016-Jul-29 06:33N 35°32' E 140°03'0 0.0
2016-Jul-29 05:27N 35°32' E 140°03'0 0.0
2016-Jul-29 04:33N 35°32' E 140°03'0 0.0
2016-Jul-29 03:33N 35°32' E 140°03'0 0.0
2016-Jul-29 02:33N 35°32' E 140°03'0 0.0
2016-Jul-29 01:30N 35°32' E 140°03'0 0.0
2016-Jul-29 00:33N 35°32' E 140°03'2 2.1
2016-Jul-28 23:33N 35°32' E 140°01'5 5.4
2016-Jul-28 22:32N 35°29' E 139°56'0 0.0
2016-Jul-28 21:29N 35°29' E 139°56'0 0.0
2016-Jul-28 20:32N 35°29' E 139°56'0 0.0
2016-Jul-28 19:32N 35°29' E 139°56'0 0.0
2016-Jul-28 18:29N 35°29' E 139°56'0 0.0
2016-Jul-28 17:29N 35°29' E 139°56'0 0.0
2016-Jul-28 16:32N 35°29' E 139°56'0 0.0
2016-Jul-28 15:29N 35°29' E 139°56'0 0.0
2016-Jul-28 14:32N 35°29' E 139°56'0 0.0
2016-Jul-28 13:32N 35°29' E 139°56'0 0.0
2016-Jul-28 12:32N 35°29' E 139°56'0 0.0
2016-Jul-28 11:32N 35°29' E 139°56'0 0.0
2016-Jul-28 10:32N 35°29' E 139°56'0 0.0
2016-Jul-28 09:32N 35°29' E 139°56'3 2.7
2016-Jul-28 08:33N 35°27' E 139°58'0 0.0
2016-Jul-28 07:31N 35°27' E 139°58'0 0.0
2016-Jul-28 06:31N 35°27' E 139°58'0 0.0
2016-Jul-28 05:31N 35°27' E 139°58'3 2.9
2016-Jul-28 04:33N 35°30' E 139°59'2 2.2
2016-Jul-28 03:30N 35°30' E 140°02'0 0.0
2016-Jul-28 02:30N 35°30' E 140°02'0 0.0
2016-Jul-28 01:33N 35°30' E 140°02'0 0.0
2016-Jul-28 00:30N 35°30' E 140°02'0 0.0
2016-Jul-27 23:33N 35°30' E 140°02'2 1.6
2016-Jul-27 22:28N 35°31' E 140°00'0 0.0
2016-Jul-27 21:32N 35°31' E 140°00'7 7.1
2016-Jul-27 20:29N 35°36' E 140°06'0 0.0
2016-Jul-27 19:32N 35°36' E 140°06'0 0.0
2016-Jul-27 18:32N 35°36' E 140°06'0 0.0
2016-Jul-27 17:29N 35°36' E 140°06'0 0.0
2016-Jul-27 16:32N 35°36' E 140°06'0 0.0
2016-Jul-27 15:32N 35°36' E 140°06'0 0.0
2016-Jul-27 14:26N 35°36' E 140°06'0 0.0
2016-Jul-27 13:26N 35°36' E 140°06'0 0.0
2016-Jul-27 12:31N 35°36' E 140°06'0 0.0
2016-Jul-27 11:32N 35°36' E 140°06'0 0.0
2016-Jul-27 10:32N 35°36' E 140°06'0 0.0
2016-Jul-27 09:32N 35°36' E 140°06'0 0.0
2016-Jul-27 08:32N 35°36' E 140°06'0 0.0
2016-Jul-27 07:32N 35°36' E 140°06'0 0.0
2016-Jul-27 06:32N 35°36' E 140°06'0 0.0
2016-Jul-27 05:33N 35°36' E 140°06'1010.3
2016-Jul-27 04:33N 35°32' E 139°55'8 3.7
2016-Jul-27 02:27N 35°32' E 139°45'0 0.0
2016-Jul-27 01:27N 35°32' E 139°45'0 0.0
2016-Jul-26 23:28N 35°32' E 139°45'4 3.9
2016-Jul-26 22:31N 35°29' E 139°49'0 0.0
2016-Jul-26 21:31N 35°29' E 139°49'0 0.0
2016-Jul-26 20:31N 35°29' E 139°49'0 0.0
2016-Jul-26 19:31N 35°29' E 139°49'0 0.0
2016-Jul-26 18:31N 35°29' E 139°49'0 0.0
2016-Jul-26 17:31N 35°29' E 139°49'0 0.0
2016-Jul-26 16:31N 35°29' E 139°49'0 0.0
2016-Jul-26 15:31N 35°29' E 139°49'0 0.0
2016-Jul-26 14:31N 35°29' E 139°49'0 0.0
2016-Jul-26 13:31N 35°29' E 139°49'0 0.0
2016-Jul-26 12:31N 35°29' E 139°49'0 0.0
2016-Jul-26 11:31N 35°29' E 139°49'7 7.0
2016-Jul-26 10:33N 35°23' E 139°46'1211.7
2016-Jul-26 09:33N 35°11' E 139°47'  
2016-Jul-22 04:28N 34°37' E 135°02'910.3
2016-Jul-22 03:33N 34°37' E 135°14'9 9.4
2016-Jul-22 02:33N 34°40' E 135°25'0 0.0
2016-Jul-22 01:34N 34°40' E 135°25'3 3.3
2016-Jul-22 00:34N 34°39' E 135°21'2 1.5
2016-Jul-21 23:30N 34°39' E 135°19'0 0.0
2016-Jul-21 22:31N 34°39' E 135°19'0 0.0
2016-Jul-21 21:24N 34°39' E 135°19'0 0.0
2016-Jul-21 20:24N 34°39' E 135°19'0 0.0
2016-Jul-21 19:30N 34°39' E 135°19'0 0.0
2016-Jul-21 18:30N 34°39' E 135°19'0 0.0
2016-Jul-21 17:30N 34°39' E 135°19'0 0.0
2016-Jul-21 16:30N 34°39' E 135°19'0 0.0
2016-Jul-21 15:24N 34°39' E 135°19'1 1.6
2016-Jul-21 14:33N 34°39' E 135°17'0 0.1
2016-Jul-21 13:33N 34°39' E 135°17'0 0.0
2016-Jul-21 12:33N 34°39' E 135°17'0 0.1
2016-Jul-21 11:33N 34°39' E 135°17'0 0.1
2016-Jul-21 10:33N 34°39' E 135°18'0 0.1
2016-Jul-21 09:33N 34°39' E 135°18'1 1.2
2016-Jul-21 08:28N 34°39' E 135°19'0 0.0
2016-Jul-21 07:22N 34°39' E 135°19'4 5.2
2016-Jul-21 06:33N 34°41' E 135°14'2 1.8
2016-Jul-21 05:29N 34°41' E 135°12'0 0.0
2016-Jul-21 04:29N 34°41' E 135°12'0 0.0
2016-Jul-21 03:29N 34°41' E 135°12'0 0.0
2016-Jul-21 02:29N 34°41' E 135°12'0 0.0
2016-Jul-21 01:29N 34°41' E 135°12'0 0.0
2016-Jul-21 00:23N 34°41' E 135°12'0 0.0
2016-Jul-20 23:29N 34°41' E 135°12'0 0.0
2016-Jul-20 22:29N 34°41' E 135°12'0 0.0
2016-Jul-20 21:29N 34°41' E 135°12'0 0.0
2016-Jul-20 20:29N 34°41' E 135°12'0 0.0
2016-Jul-20 19:29N 34°41' E 135°12'0 0.0
2016-Jul-20 18:29N 34°41' E 135°12'0 0.0
2016-Jul-20 17:29N 34°41' E 135°12'0 0.0
2016-Jul-20 16:29N 34°41' E 135°12'0 0.0
2016-Jul-20 15:29N 34°41' E 135°12'0 0.0
2016-Jul-20 14:29N 34°41' E 135°12'0 0.0
2016-Jul-20 13:29N 34°41' E 135°12'0 0.0
2016-Jul-20 12:29N 34°41' E 135°12'0 0.0
2016-Jul-20 11:29N 34°41' E 135°12'0 0.0
2016-Jul-20 10:29N 34°41' E 135°12'0 0.0
2016-Jul-20 09:29N 34°41' E 135°12'0 0.0
2016-Jul-20 08:29N 34°41' E 135°12'0 0.0
2016-Jul-20 07:17N 34°41' E 135°12'0 0.0
2016-Jul-20 06:29N 34°41' E 135°12'0 0.0
2016-Jul-20 05:29N 34°41' E 135°12'  
Track history (hours):
 
Tides and Currents Weather Stations Pressure Air Temp Water Temp Dewpoint Dewpoint Depression Visibility Wind Speed Wind Dir Waves Ship Positions

Kyokuho Maru No.15

Last reported at 2016-Jul-30 04:33 UTC. Time now 2016-Aug-27 02:58 UTC.
Position N 35°15' E 139°46'.
Warning: this ship's position is 27 days out of date.

Length 63 m; draft 3.2 m.

Type: Tanker. MMSI: 431301714.

Date/timePositionNaut miles runAvg speedWind from/ knotsBaromVisibWave heightAir tempDewpointWater temp
2016-Jul-30 04:33N 35°15' E 139°46'1110.5
2016-Jul-30 03:33N 35°25' E 139°44'9 8.6
2016-Jul-30 02:28N 35°28' E 139°55'0 0.0
2016-Jul-30 01:28N 35°28' E 139°55'0 0.0
2016-Jul-30 00:31N 35°28' E 139°55'0 0.0
2016-Jul-29 23:31N 35°28' E 139°55'0 0.0
2016-Jul-29 22:28N 35°28' E 139°55'0 0.0
2016-Jul-29 21:31N 35°28' E 139°55'0 0.0
2016-Jul-29 20:31N 35°28' E 139°55'0 0.0
2016-Jul-29 19:28N 35°28' E 139°55'0 0.0
2016-Jul-29 18:31N 35°28' E 139°55'7 7.4
2016-Jul-29 17:33N 35°32' E 140°03'1 0.7
2016-Jul-29 16:33N 35°32' E 140°03'0 0.0
2016-Jul-29 15:30N 35°32' E 140°03'0 0.0
2016-Jul-29 14:33N 35°32' E 140°03'0 0.0
2016-Jul-29 13:33N 35°32' E 140°03'0 0.0
2016-Jul-29 12:33N 35°32' E 140°03'0 0.0
2016-Jul-29 11:33N 35°32' E 140°03'0 0.0
2016-Jul-29 10:33N 35°32' E 140°03'0 0.0
2016-Jul-29 09:33N 35°32' E 140°03'0 0.0
2016-Jul-29 08:33N 35°32' E 140°03'0 0.0
2016-Jul-29 07:33N 35°32' E 140°03'0 0.0
2016-Jul-29 06:33N 35°32' E 140°03'0 0.0
2016-Jul-29 05:27N 35°32' E 140°03'0 0.0
2016-Jul-29 04:33N 35°32' E 140°03'0 0.0
2016-Jul-29 03:33N 35°32' E 140°03'0 0.0
2016-Jul-29 02:33N 35°32' E 140°03'0 0.0
2016-Jul-29 01:30N 35°32' E 140°03'0 0.0
2016-Jul-29 00:33N 35°32' E 140°03'2 2.1
2016-Jul-28 23:33N 35°32' E 140°01'5 5.4
2016-Jul-28 22:32N 35°29' E 139°56'0 0.0
2016-Jul-28 21:29N 35°29' E 139°56'0 0.0
2016-Jul-28 20:32N 35°29' E 139°56'0 0.0
2016-Jul-28 19:32N 35°29' E 139°56'0 0.0
2016-Jul-28 18:29N 35°29' E 139°56'0 0.0
2016-Jul-28 17:29N 35°29' E 139°56'0 0.0
2016-Jul-28 16:32N 35°29' E 139°56'0 0.0
2016-Jul-28 15:29N 35°29' E 139°56'0 0.0
2016-Jul-28 14:32N 35°29' E 139°56'0 0.0
2016-Jul-28 13:32N 35°29' E 139°56'0 0.0
2016-Jul-28 12:32N 35°29' E 139°56'0 0.0
2016-Jul-28 11:32N 35°29' E 139°56'0 0.0
2016-Jul-28 10:32N 35°29' E 139°56'0 0.0
2016-Jul-28 09:32N 35°29' E 139°56'3 2.7
2016-Jul-28 08:33N 35°27' E 139°58'0 0.0
2016-Jul-28 07:31N 35°27' E 139°58'0 0.0
2016-Jul-28 06:31N 35°27' E 139°58'0 0.0
2016-Jul-28 05:31N 35°27' E 139°58'3 2.9
2016-Jul-28 04:33N 35°30' E 139°59'2 2.2
2016-Jul-28 03:30N 35°30' E 140°02'0 0.0
2016-Jul-28 02:30N 35°30' E 140°02'0 0.0
2016-Jul-28 01:33N 35°30' E 140°02'0 0.0
2016-Jul-28 00:30N 35°30' E 140°02'0 0.0
2016-Jul-27 23:33N 35°30' E 140°02'2 1.6
2016-Jul-27 22:28N 35°31' E 140°00'0 0.0
2016-Jul-27 21:32N 35°31' E 140°00'7 7.1
2016-Jul-27 20:29N 35°36' E 140°06'0 0.0
2016-Jul-27 19:32N 35°36' E 140°06'0 0.0
2016-Jul-27 18:32N 35°36' E 140°06'0 0.0
2016-Jul-27 17:29N 35°36' E 140°06'0 0.0
2016-Jul-27 16:32N 35°36' E 140°06'0 0.0
2016-Jul-27 15:32N 35°36' E 140°06'0 0.0
2016-Jul-27 14:26N 35°36' E 140°06'0 0.0
2016-Jul-27 13:26N 35°36' E 140°06'0 0.0
2016-Jul-27 12:31N 35°36' E 140°06'0 0.0
2016-Jul-27 11:32N 35°36' E 140°06'0 0.0
2016-Jul-27 10:32N 35°36' E 140°06'0 0.0
2016-Jul-27 09:32N 35°36' E 140°06'0 0.0
2016-Jul-27 08:32N 35°36' E 140°06'0 0.0
2016-Jul-27 07:32N 35°36' E 140°06'0 0.0
2016-Jul-27 06:32N 35°36' E 140°06'0 0.0
2016-Jul-27 05:33N 35°36' E 140°06'1010.3
2016-Jul-27 04:33N 35°32' E 139°55'8 3.7
2016-Jul-27 02:27N 35°32' E 139°45'0 0.0
2016-Jul-27 01:27N 35°32' E 139°45'0 0.0
2016-Jul-26 23:28N 35°32' E 139°45'4 3.9
2016-Jul-26 22:31N 35°29' E 139°49'0 0.0
2016-Jul-26 21:31N 35°29' E 139°49'0 0.0
2016-Jul-26 20:31N 35°29' E 139°49'0 0.0
2016-Jul-26 19:31N 35°29' E 139°49'0 0.0
2016-Jul-26 18:31N 35°29' E 139°49'0 0.0
2016-Jul-26 17:31N 35°29' E 139°49'0 0.0
2016-Jul-26 16:31N 35°29' E 139°49'0 0.0
2016-Jul-26 15:31N 35°29' E 139°49'0 0.0
2016-Jul-26 14:31N 35°29' E 139°49'0 0.0
2016-Jul-26 13:31N 35°29' E 139°49'0 0.0
2016-Jul-26 12:31N 35°29' E 139°49'0 0.0
2016-Jul-26 11:31N 35°29' E 139°49'7 7.0
2016-Jul-26 10:33N 35°23' E 139°46'1211.7
2016-Jul-26 09:33N 35°11' E 139°47'  
2016-Jul-22 04:28N 34°37' E 135°02'910.3
2016-Jul-22 03:33N 34°37' E 135°14'9 9.4
2016-Jul-22 02:33N 34°40' E 135°25'0 0.0
2016-Jul-22 01:34N 34°40' E 135°25'3 3.3
2016-Jul-22 00:34N 34°39' E 135°21'2 1.5
2016-Jul-21 23:30N 34°39' E 135°19'0 0.0
2016-Jul-21 22:31N 34°39' E 135°19'0 0.0
2016-Jul-21 21:24N 34°39' E 135°19'0 0.0
2016-Jul-21 20:24N 34°39' E 135°19'0 0.0
2016-Jul-21 19:30N 34°39' E 135°19'0 0.0
2016-Jul-21 18:30N 34°39' E 135°19'0 0.0
2016-Jul-21 17:30N 34°39' E 135°19'0 0.0
2016-Jul-21 16:30N 34°39' E 135°19'0 0.0
2016-Jul-21 15:24N 34°39' E 135°19'1 1.6
2016-Jul-21 14:33N 34°39' E 135°17'0 0.1
2016-Jul-21 13:33N 34°39' E 135°17'0 0.0
2016-Jul-21 12:33N 34°39' E 135°17'0 0.1
2016-Jul-21 11:33N 34°39' E 135°17'0 0.1
2016-Jul-21 10:33N 34°39' E 135°18'0 0.1
2016-Jul-21 09:33N 34°39' E 135°18'1 1.2
2016-Jul-21 08:28N 34°39' E 135°19'0 0.0
2016-Jul-21 07:22N 34°39' E 135°19'4 5.2
2016-Jul-21 06:33N 34°41' E 135°14'2 1.8
2016-Jul-21 05:29N 34°41' E 135°12'0 0.0
2016-Jul-21 04:29N 34°41' E 135°12'0 0.0
2016-Jul-21 03:29N 34°41' E 135°12'0 0.0
2016-Jul-21 02:29N 34°41' E 135°12'0 0.0
2016-Jul-21 01:29N 34°41' E 135°12'0 0.0
2016-Jul-21 00:23N 34°41' E 135°12'0 0.0
2016-Jul-20 23:29N 34°41' E 135°12'0 0.0
2016-Jul-20 22:29N 34°41' E 135°12'0 0.0
2016-Jul-20 21:29N 34°41' E 135°12'0 0.0
2016-Jul-20 20:29N 34°41' E 135°12'0 0.0
2016-Jul-20 19:29N 34°41' E 135°12'0 0.0
2016-Jul-20 18:29N 34°41' E 135°12'0 0.0
2016-Jul-20 17:29N 34°41' E 135°12'0 0.0
2016-Jul-20 16:29N 34°41' E 135°12'0 0.0
2016-Jul-20 15:29N 34°41' E 135°12'0 0.0
2016-Jul-20 14:29N 34°41' E 135°12'0 0.0
2016-Jul-20 13:29N 34°41' E 135°12'0 0.0
2016-Jul-20 12:29N 34°41' E 135°12'0 0.0
2016-Jul-20 11:29N 34°41' E 135°12'0 0.0
2016-Jul-20 10:29N 34°41' E 135°12'0 0.0
2016-Jul-20 09:29N 34°41' E 135°12'0 0.0
2016-Jul-20 08:29N 34°41' E 135°12'0 0.0
2016-Jul-20 07:17N 34°41' E 135°12'0 0.0
2016-Jul-20 06:29N 34°41' E 135°12'0 0.0
2016-Jul-20 05:29N 34°41' E 135°12'  

Dump ship's entire track history